Overview Statistics Trail Chart Weather Telemetry Raw packets
 

This is the latest recevied weather packets stored in our database for station/object WA1TYB-13. If no packets are shown the sender has not sent any weather packets the latest 10 day(s).

<< 9 10 11 12 13 14 15 >>
Time Temp. Humidity Pressure Rain* Wind** Luminosity Snow
1788550499 22.22° C 28% 1013.2 hPa 0 mm - 171 W/m² -
1788550195 22.22° C 28% 1013.2 hPa 0 mm - 137 W/m² -
1788549895 22.22° C 29% 1013.3 hPa 0 mm - 164 W/m² -
1788549591 22.78° C 27% 1013 hPa 0 mm - 168 W/m² -
1788549287 22.78° C 27% 1013.2 hPa 0 mm - 763 W/m² -
1788548984 22.22° C 29% 1013 hPa 0 mm - 439 W/m² -
1788548679 22.78° C 28% 1013 hPa 0 mm - 567 W/m² -
1788548375 22.22° C 27% 1012.9 hPa 0 mm - 704 W/m² -
1788548071 22.22° C 28% 1012.6 hPa 0 mm - 280 W/m² -
1788547771 22.78° C 26% 1012.9 hPa 0 mm - 700 W/m² -
1788547465 22.78° C 30% 1013 hPa 0 mm - 639 W/m² -
1788547161 22.22° C 30% 1013 hPa 0 mm - 607 W/m² -
1788546856 22.22° C 29% 1013 hPa 0 mm - 593 W/m² -
1788546552 21.67° C 32% 1013 hPa 0 mm - 563 W/m² -
1788546247 21.67° C 35% 1013.1 hPa 0 mm - 558 W/m² -
1788545941 21.67° C 32% 1013 hPa 0 mm - 553 W/m² -
1788545636 21.11° C 34% 1013.1 hPa 0 mm - 542 W/m² -
1788545331 21.11° C 34% 1013.1 hPa 0 mm - 564 W/m² -
1788545027 21.11° C 32% 1013.1 hPa 0 mm - 579 W/m² -
1788544726 20.56° C 34% 1013.2 hPa 0 mm - 576 W/m² -
1788544425 20.56° C 36% 1013.2 hPa 0 mm - 543 W/m² -
1788544119 20.56° C 34% 1013.2 hPa 0 mm - 524 W/m² -
1788543815 20.56° C 36% 1013.2 hPa 0 mm - 512 W/m² -
1788543511 20.56° C 35% 1013.3 hPa 0 mm - 538 W/m² -
1788543206 20.56° C 37% 1013.2 hPa 0 mm - 586 W/m² -

* Rain latest hour (hover to see other rain measurements)
** Current wind speed in m/s (hover to see current wind gust speed)